Home > Weather > Pointe-à-Pitre > Past weeks

Flag for Guadeloupe Weather for the Past 2 Weeks in Pointe-à-Pitre, Guadeloupe

Now
86 °F

Broken clouds.


Feels Like: 92 °F
Forecast: 76 / 85 °F
Wind: 14 mph from Southeast

Location: Le Raizet - Guadeloupe

Current Time: May 3, 2016 at 12:49:39 PM

Latest Report: May 3, 2016 at 12:30 PM


Visibility: N/A

Pressure: 30.01 "Hg

Humidity: 62%

Dew Point: 72 °F

Location of Pointe-à-PitreLocation

Historic Weather in Pointe-à-Pitre — Graph

°F

Pointe-à-Pitre Temperature Yesterday

Maximum temperature yesterday: 84 °F (at 9:00 AM)
Minimum temperature yesterday: 72 °F (at 10:30 PM)
Average temperature yesterday: 79 °F

High & Low Weather Summary for the Past Weeks

 TemperatureHumidityPressure
High88 °F (Apr 18, 12:00 PM)100% (Apr 19, 4:00 AM)30.07 "Hg (Apr 19, 4:00 AM)
Low72 °F (May 2, 10:30 PM)55% (Apr 25, 10:30 AM)29.83 "Hg (Apr 24, 4:30 PM)
Average81 °F78%29.94 "Hg
* Reported Apr 18 11:00 AM — May 3 11:30 AM, Pointe-à-Pitre, Weather by CustomWeather, © 2016

Note: Actual official high and low records may vary slightly from our data, if they occured in-between our weather recording intervals... More about our weather records

Advertising

Pointe-à-Pitre Weather History for the Previous 24 Hours

Scroll right to see more
 ConditionsComfort  
Time TempWeatherWind HumidityBarometerVisibility
11:30 AM
Tue, May 3
84 °FWarm.12 mph66%30.04 "HgN/A
11:00 AM84 °FWarm.14 mph66%30.04 "HgN/A
10:30 AM82 °FBroken clouds.9 mph79%30.04 "Hg6 mi
10:00 AM84 °FScattered clouds.8 mph70%30.04 "HgN/A
9:30 AM82 °FPartly sunny.7 mph79%30.04 "HgN/A
9:00 AM82 °FPartly sunny.8 mph74%30.04 "HgN/A
8:30 AM81 °FClear.8 mph84%30.04 "HgN/A
7:30 AM77 °FClear.3 mph94%30.04 "Hg6 mi
7:00 AM75 °FClear.No wind100%30.04 "Hg5 mi
6:30 AM75 °FClear.No wind94%30.01 "Hg5 mi
6:00 AM73 °FClear.No wind100%30.01 "Hg5 mi
5:30 AM73 °FPartly cloudy.No wind100%30.01 "Hg5 mi
5:00 AM75 °FPassing clouds.No wind94%29.98 "Hg6 mi
4:00 AM73 °FClear.No wind100%29.98 "Hg4 mi
3:30 AM73 °FClear.No wind94%29.98 "HgN/A
3:00 AM73 °FClear.2 mph94%29.98 "HgN/A
2:30 AM73 °FPartly cloudy.3 mph94%29.98 "HgN/A
2:00 AM73 °FOvercast.No wind94%29.98 "HgN/A
1:30 AM73 °FMild.2 mph94%29.98 "HgN/A
1:00 AM73 °FClear.2 mph94%30.01 "HgN/A
12:30 AM73 °FClear.2 mph94%30.01 "HgN/A
12:00 AM75 °FPartly cloudy.2 mph89%30.04 "HgN/A
11:30 PM
Mon, May 2
73 °FPassing clouds.3 mph89%30.04 "HgN/A
11:00 PM73 °FLight rain. Partly cloudy.6 mph83%30.04 "HgN/A
10:30 PM72 °FLight rain. Passing clouds.15 mph83%30.07 "Hg5 mi
10:00 PM75 °FMostly cloudy.13 mph83%30.07 "HgN/A
9:00 PM73 °FLight rain. Partly cloudy.8 mph89%30.04 "Hg6 mi
8:30 PM75 °FRain. Fog.14 mph89%30.04 "Hg2 mi
8:00 PM79 °FPartly cloudy.5 mph84%30.04 "HgN/A
7:30 PM79 °FPassing clouds.6 mph84%30.01 "HgN/A
7:00 PM79 °FPartly cloudy.3 mph84%30.01 "HgN/A
6:00 PM79 °FClear.2 mph79%30.01 "HgN/A
5:00 PM79 °FClear.6 mph74%29.98 "HgN/A
4:30 PM77 °FWarm.6 mph69%29.98 "HgN/A
4:00 PM77 °FBroken clouds.17 mph65%29.98 "HgN/A
3:30 PM84 °FBroken clouds.9 mph70%29.98 "HgN/A
3:00 PM82 °FBroken clouds.7 mph74%29.98 "HgN/A
2:30 PM82 °FBroken clouds.8 mph74%29.98 "HgN/A
2:00 PM82 °FClear.9 mph70%29.98 "HgN/A
1:30 PM82 °FClear.13 mph70%30.01 "HgN/A
1:00 PM82 °FBroken clouds.12 mph70%30.01 "HgN/A
12:30 PM82 °FPartly sunny.13 mph70%30.01 "HgN/A
12:00 PM84 °FPassing clouds.15 mph66%30.01 "HgN/A
Weather by CustomWeather, © 2016

See weather overviewHow to use our weather pages